Location: Alexandria
(38.8050°N, 77.0470°W)
Time: 15:19:58
(UTC-04:00)

Vanguard 2 Rocket - Visible Passes

Search period start: 23 April 2018 00:00
Search period end: 03 May 2018 00:00
Orbit: 553 x 3328 km, 32.9° (Epoch: 22 April)

Date Brightness Start Highest point End Pass type
(mag) Time Alt. Az. Time Alt. Az. Time Alt. Az.
23 Apr 10.1 02:16:34 20° SE 02:18:42 20° SE 02:30:13 10° E visible
23 Apr 9.7 04:22:21 24° SSW 04:33:01 50° SSE 04:52:03 10° E visible
24 Apr 10.5 01:20:13 11° ESE 01:20:13 11° ESE 01:22:16 10° ESE visible
24 Apr 9.6 03:26:00 31° S 03:32:04 40° SE 03:49:27 10° E visible
24 Apr 9.8 05:31:46 10° WSW 05:48:26 67° SSE 06:08:24 10° E visible
25 Apr 9.7 02:29:37 28° SSE 02:31:44 29° SE 02:46:08 10° E visible
25 Apr 9.6 04:35:24 23° SW 04:46:42 59° SSE 05:06:27 10° E visible
26 Apr 10.1 01:33:12 18° ESE 01:33:12 18° ESE 01:41:39 10° E visible
26 Apr 9.3 03:38:58 34° SSW 03:45:31 50° SSE 04:04:02 10° E visible
26 Apr 9.7 05:45:43 10° WSW 06:02:29 71° S 06:22:42 10° E visible
27 Apr 9.3 02:42:32 36° SSE 02:44:57 38° SE 03:01:08 10° E visible
27 Apr 9.5 04:48:19 20° WSW 05:00:36 66° SSE 05:20:46 10° E visible
28 Apr 9.7 01:46:04 27° SE 01:46:04 27° SE 01:57:38 10° E visible
28 Apr 9.2 03:51:51 34° SW 03:59:13 58° SSE 04:18:24 10° E visible
29 Apr 10.2 00:49:35 14° ESE 00:49:35 14° ESE 00:53:00 10° E visible
29 Apr 9.0 02:55:22 43° S 02:58:25 48° SSE 03:15:41 10° E visible
29 Apr 9.5 05:01:08 15° WSW 05:14:40 71° S 05:35:02 10° E visible
30 Apr 9.3 01:58:53 36° SE 01:58:53 36° SE 02:12:39 10° E visible
30 Apr 9.2 04:04:39 30° SW 04:13:08 66° SSE 04:32:41 10° E visible
01 May 9.8 01:02:23 21° ESE 01:02:23 21° ESE 01:09:10 10° E visible
01 May 8.8 03:08:09 45° SSW 03:12:09 57° SSE 03:30:03 10° E visible
01 May 9.5 05:14:06 10° W 05:28:51 72° S 05:49:13 10° E visible
02 May 8.9 02:11:40 46° SSE 02:11:46 46° SSE 02:27:13 10° E visible
02 May 9.2 04:17:26 23° WSW 04:27:15 70° S 04:46:55 10° E visible
